| time (UTC) | temp F | wind direction | speed MPH | gust MPH | rain 1hr in | rain 24hr in | rain mn in | humidity % | barometer mb |
| 20260505073321 | 72 | 138 | 4.0 | 9.0 | 0.00 | 0.00 | 0.00 | 88 | 1009.7 |
| 20260505072828 | 72 | 190 | 3.0 | 6.0 | 0.00 | 0.00 | 0.00 | 88 | 1009.7 |
| 20260505072334 | 72 | 193 | 3.0 | 6.0 | 0.00 | 0.00 | 0.00 | 87 | 1009.7 |
| 20260505071823 | 72 | 188 | 3.0 | 9.0 | 0.00 | 0.00 | 0.00 | 87 | 1010.1 |
| 20260505071331 | 72 | 179 | 3.0 | 8.0 | 0.00 | 0.00 | 0.00 | 87 | 1010.1 |
| 20260505070836 | 72 | 184 | 3.0 | 9.0 | 0.00 | 0.00 | 0.00 | 87 | 1010.1 |
| 20260505070402 | 72 | 125 | 5.0 | 9.0 | 0.00 | 0.00 | 0.00 | 87 | 1010.1 |
| 20260505065824 | 72 | 150 | 2.0 | 9.0 | 0.00 | 0.00 | 0.00 | 87 | 1010.1 |
| 20260505065329 | 72 | 151 | 4.0 | 9.0 | 0.00 | 0.00 | 0.00 | 87 | 1010.1 |
| 20260505064834 | 71 | 182 | 4.0 | 9.0 | 0.00 | 0.00 | 0.00 | 87 | 1010.2 |
| 20260505064339 | 71 | 191 | 4.0 | 9.0 | 0.00 | 0.00 | 0.00 | 86 | 1010.2 |
| 20260505063823 | 71 | 198 | 5.0 | 9.0 | 0.00 | 0.00 | 0.00 | 86 | 1010.2 |
| 20260505063328 | 71 | 194 | 4.0 | 7.0 | 0.00 | 0.00 | 0.00 | 86 | 1010.5 |
| 20260505062835 | 71 | 175 | 5.0 | 7.0 | 0.00 | 0.00 | 0.00 | 86 | 1010.5 |
| 20260505062338 | 71 | 158 | 4.0 | 7.0 | 0.00 | 0.00 | 0.00 | 86 | 1010.5 |
| 20260505061824 | 71 | 187 | 4.0 | 7.0 | 0.00 | 0.00 | 0.00 | 86 | 1010.7 |
| 20260505061329 | 71 | 155 | 3.0 | 7.0 | 0.00 | 0.00 | 0.00 | 85 | 1010.7 |
| 20260505060834 | 72 | 162 | 4.0 | 7.0 | 0.00 | 0.00 | 0.00 | 85 | 1010.7 |
| 20260505060323 | 72 | 160 | 3.0 | 7.0 | 0.00 | 0.00 | 0.00 | 85 | 1010.7 |
| 20260505055827 | 72 | 177 | 3.0 | 10.0 | 0.00 | 0.00 | 0.00 | 85 | 1010.7 |
| 20260505055333 | 72 | 185 | 6.0 | 10.0 | 0.00 | 0.00 | 0.00 | 85 | 1010.7 |
| 20260505054859 | 72 | 186 | 4.0 | 11.0 | 0.00 | 0.00 | 0.00 | 85 | 1010.7 |
| 20260505054323 | 72 | 163 | 4.0 | 11.0 | 0.00 | 0.00 | 0.00 | 85 | 1010.7 |
| 20260505053831 | 72 | 160 | 3.0 | 10.0 | 0.00 | 0.00 | 0.00 | 85 | 1010.7 |
| 20260505053336 | 72 | 159 | 4.0 | 7.0 | 0.00 | 0.00 | 0.00 | 84 | 1011.0 |
| 20260505052841 | 72 | 151 | 4.0 | 7.0 | 0.00 | 0.00 | 0.00 | 84 | 1011.0 |
| 20260505052327 | 72 | 184 | 5.0 | 7.0 | 0.00 | 0.00 | 0.00 | 84 | 1011.0 |
| 20260505051832 | 72 | 186 | 3.0 | 6.0 | 0.00 | 0.00 | 0.00 | 84 | 1011.1 |
| 20260505051359 | 72 | 183 | 3.0 | 10.0 | 0.00 | 0.00 | 0.00 | 84 | 1011.1 |
| 20260505050823 | 72 | 185 | 6.0 | 10.0 | 0.00 | 0.00 | 0.00 | 83 | 1011.1 |
| 20260505050337 | 72 | 170 | 5.0 | 9.0 | 0.00 | 0.00 | 0.00 | 83 | 1011.2 |
| 20260505041327 | 73 | 209 | 6.0 | 11.0 | 0.00 | 0.00 | 0.00 | 81 | 1011.0 |
| 20260505040852 | 73 | 148 | 5.0 | 12.0 | 0.00 | 0.00 | 0.00 | 81 | 1011.0 |
| 20260505040341 | 73 | 198 | 5.0 | 15.0 | 0.00 | 0.00 | 0.00 | 81 | 1011.2 |
| 20260505035846 | 73 | 184 | 5.0 | 15.0 | 0.00 | 0.00 | 0.00 | 81 | 1011.2 |
| 20260505035329 | 73 | 176 | 7.0 | 12.0 | 0.00 | 0.00 | 0.00 | 81 | 1011.2 |
| 20260505034857 | 73 | 143 | 5.0 | 13.0 | 0.00 | 0.00 | 0.00 | 80 | 1011.5 |
| 20260505034341 | 73 | 154 | 6.0 | 13.0 | 0.00 | 0.00 | 0.00 | 80 | 1011.5 |
| 20260505033826 | 73 | 165 | 7.0 | 15.0 | 0.00 | 0.00 | 0.00 | 80 | 1011.5 |
| 20260505033352 | 73 | 176 | 8.0 | 15.0 | 0.00 | 0.00 | 0.00 | 80 | 1011.4 |
| 20260505032856 | 73 | 193 | 5.0 | 15.0 | 0.00 | 0.00 | 0.00 | 80 | 1011.4 |
| 20260505032341 | 73 | 180 | 7.0 | 15.0 | 0.00 | 0.00 | 0.00 | 79 | 1011.4 |
| 20260505031825 | 74 | 173 | 5.0 | 12.0 | 0.00 | 0.00 | 0.00 | 79 | 1011.2 |
| 20260505031330 | 74 | 188 | 8.0 | 12.0 | 0.00 | 0.00 | 0.00 | 79 | 1011.2 |
| 20260505030837 | 74 | 201 | 8.0 | 16.0 | 0.00 | 0.00 | 0.00 | 79 | 1011.2 |
| 20260505030322 | 74 | 201 | 10.0 | 16.0 | 0.00 | 0.00 | 0.00 | 79 | 1011.2 |
| 20260505025826 | 74 | 146 | 7.0 | 17.0 | 0.00 | 0.00 | 0.00 | 78 | 1011.2 |
| 20260505025337 | 74 | 125 | 8.0 | 17.0 | 0.00 | 0.00 | 0.00 | 78 | 1011.2 |
| 20260505024823 | 74 | 132 | 5.0 | 13.0 | 0.00 | 0.00 | 0.00 | 78 | 1011.3 |
| 20260505024328 | 74 | 151 | 7.0 | 13.0 | 0.00 | 0.00 | 0.00 | 78 | 1011.3 |
| 20260505023833 | 74 | 141 | 7.0 | 13.0 | 0.00 | 0.00 | 0.00 | 77 | 1011.3 |
| 20260505023338 | 74 | 153 | 5.0 | 13.0 | 0.00 | 0.00 | 0.00 | 77 | 1011.2 |
| 20260505022824 | 74 | 175 | 5.0 | 16.0 | 0.00 | 0.00 | 0.00 | 77 | 1011.2 |
| 20260505022329 | 74 | 196 | 9.0 | 14.0 | 0.00 | 0.00 | 0.00 | 77 | 1011.2 |
| 20260505021833 | 75 | 159 | 6.0 | 12.0 | 0.00 | 0.00 | 0.00 | 77 | 1011.2 |
| 20260505021338 | 75 | 134 | 6.0 | 12.0 | 0.00 | 0.00 | 0.00 | 76 | 1011.2 |
| 20260505020822 | 75 | 201 | 8.0 | 14.0 | 0.00 | 0.00 | 0.00 | 76 | 1011.2 |
| 20260505020327 | 75 | 191 | 7.0 | 17.0 | 0.00 | 0.00 | 0.00 | 76 | 1011.1 |
| 20260505015835 | 75 | 147 | 8.0 | 17.0 | 0.00 | 0.00 | 0.00 | 76 | 1011.1 |
| 20260505015321 | 75 | 202 | 8.0 | 15.0 | 0.00 | 0.00 | 0.00 | 75 | 1011.1 |
| 20260505014826 | 75 | 208 | 8.0 | 15.0 | 0.00 | 0.00 | 0.00 | 75 | 1010.8 |
| 20260505014334 | 75 | 155 | 4.0 | 12.0 | 0.00 | 0.00 | 0.00 | 75 | 1010.8 |
| 20260505013821 | 75 | 135 | 6.0 | 13.0 | 0.00 | 0.00 | 0.00 | 75 | 1010.8 |
| 20260505013329 | 76 | 200 | 7.0 | 13.0 | 0.00 | 0.00 | 0.00 | 75 | 1010.7 |
| 20260505012855 | 76 | 185 | 5.0 | 13.0 | 0.00 | 0.00 | 0.00 | 74 | 1010.7 |
| 20260505012319 | 76 | 161 | 6.0 | 12.0 | 0.00 | 0.00 | 0.00 | 74 | 1010.7 |
| 20260505011828 | 76 | 143 | 8.0 | 12.0 | 0.00 | 0.00 | 0.00 | 74 | 1010.7 |
| 20260505011335 | 76 | 145 | 6.0 | 11.0 | 0.00 | 0.00 | 0.00 | 74 | 1010.7 |
| 20260505010820 | 76 | 137 | 6.0 | 12.0 | 0.00 | 0.00 | 0.00 | 74 | 1010.7 |
| 20260505010348 | 76 | 206 | 5.0 | 14.0 | 0.00 | 0.00 | 0.00 | 73 | 1010.7 |
| 20260505005820 | 76 | 189 | 5.0 | 13.0 | 0.00 | 0.00 | 0.00 | 73 | 1010.7 |
| 20260505005328 | 76 | 182 | 8.0 | 16.0 | 0.00 | 0.00 | 0.00 | 73 | 1010.7 |
| 20260505004857 | 76 | 191 | 7.0 | 16.0 | 0.00 | 0.00 | 0.00 | 73 | 1010.6 |
| 20260505004323 | 76 | 163 | 4.0 | 12.0 | 0.00 | 0.00 | 0.00 | 73 | 1010.6 |
| 20260505003829 | 76 | 176 | 5.0 | 12.0 | 0.00 | 0.00 | 0.00 | 73 | 1010.6 |
| 20260505003335 | 77 | 165 | 5.0 | 12.0 | 0.00 | 0.00 | 0.00 | 72 | 1010.7 |
| 20260505002841 | 77 | 140 | 7.0 | 12.0 | 0.00 | 0.00 | 0.00 | 72 | 1010.7 |
| 20260505002327 | 77 | 168 | 4.0 | 9.0 | 0.00 | 0.00 | 0.00 | 72 | 1010.7 |
| 20260505001834 | 77 | 189 | 3.0 | 11.0 | 0.00 | 0.00 | 0.00 | 72 | 1010.8 |
| 20260505001343 | 77 | 197 | 6.0 | 15.0 | 0.00 | 0.00 | 0.00 | 71 | 1010.8 |
| 20260505000829 | 77 | 143 | 7.0 | 11.0 | 0.00 | 0.00 | 0.00 | 71 | 1010.8 |
| 20260505000336 | 77 | 178 | 7.0 | 14.0 | 0.00 | 0.00 | 0.00 | 70 | 1010.7 |
| 20260504235819 | 78 | 185 | 10.0 | 14.0 | 0.00 | 0.00 | 0.00 | 70 | 1010.7 |
| 20260504235332 | 78 | 141 | 8.0 | 14.0 | 0.00 | 0.00 | 0.00 | 70 | 1010.7 |
| 20260504234839 | 78 | 147 | 8.0 | 14.0 | 0.00 | 0.00 | 0.00 | 70 | 1011.0 |
| 20260504234346 | 78 | 162 | 8.0 | 13.0 | 0.00 | 0.00 | 0.00 | 70 | 1011.0 |
| 20260504233830 | 78 | 134 | 8.0 | 13.0 | 0.00 | 0.00 | 0.00 | 69 | 1011.0 |
| 20260504233334 | 78 | 179 | 6.0 | 13.0 | 0.00 | 0.00 | 0.00 | 70 | 1011.1 |
| 20260504232838 | 78 | 196 | 6.0 | 13.0 | 0.00 | 0.00 | 0.00 | 69 | 1011.1 |
| 20260504232322 | 78 | 191 | 4.0 | 13.0 | 0.00 | 0.00 | 0.00 | 69 | 1011.1 |
| 20260504231845 | 78 | 162 | 8.0 | 13.0 | 0.00 | 0.00 | 0.00 | 69 | 1011.2 |
| 20260504231329 | 78 | 181 | 7.0 | 13.0 | 0.00 | 0.00 | 0.00 | 69 | 1011.2 |
| 20260504230836 | 79 | 203 | 8.0 | 12.0 | 0.00 | 0.00 | 0.00 | 68 | 1011.2 |
| 20260504230400 | 79 | 145 | 6.0 | 15.0 | 0.00 | 0.00 | 0.00 | 68 | 1011.2 |
| 20260504225840 | 79 | 202 | 8.0 | 15.0 | 0.00 | 0.00 | 0.00 | 68 | 1011.2 |
| 20260504225325 | 79 | 221 | 7.0 | 15.0 | 0.00 | 0.00 | 0.00 | 68 | 1011.2 |
| 20260504224829 | 79 | 166 | 9.0 | 15.0 | 0.00 | 0.00 | 0.00 | 67 | 1011.3 |
| 20260504224331 | 79 | 184 | 7.0 | 15.0 | 0.00 | 0.00 | 0.00 | 67 | 1011.3 |
| 20260504223834 | 79 | 135 | 7.0 | 12.0 | 0.00 | 0.00 | 0.00 | 67 | 1011.3 |
| 20260504223322 | 79 | 188 | 6.0 | 14.0 | 0.00 | 0.00 | 0.00 | 66 | 1011.5 |
| 20260504222824 | 80 | 153 | 6.0 | 14.0 | 0.00 | 0.00 | 0.00 | 66 | 1011.5 |
| 20260504222327 | 80 | 163 | 7.0 | 15.0 | 0.00 | 0.00 | 0.00 | 65 | 1011.5 |
| 20260504221830 | 80 | 182 | 10.0 | 15.0 | 0.00 | 0.00 | 0.00 | 64 | 1011.7 |
| 20260504221334 | 80 | 194 | 6.0 | 13.0 | 0.00 | 0.00 | 0.00 | 64 | 1011.7 |
| 20260504220858 | 80 | 175 | 5.0 | 13.0 | 0.00 | 0.00 | 0.00 | 63 | 1011.7 |
| 20260504220323 | 80 | 154 | 6.0 | 13.0 | 0.00 | 0.00 | 0.00 | 63 | 1011.7 |
| 20260504215826 | 80 | 147 | 7.0 | 15.0 | 0.00 | 0.00 | 0.00 | 62 | 1011.7 |
| 20260504215328 | 81 | 203 | 10.0 | 15.0 | 0.00 | 0.00 | 0.00 | 61 | 1011.7 |
| 20260504214831 | 81 | 185 | 6.0 | 12.0 | 0.00 | 0.00 | 0.00 | 61 | 1011.8 |
| 20260504214334 | 81 | 214 | 5.0 | 13.0 | 0.00 | 0.00 | 0.00 | 61 | 1011.8 |
| 20260504213837 | 81 | 203 | 6.0 | 13.0 | 0.00 | 0.00 | 0.00 | 60 | 1011.8 |
| 20260504213325 | 81 | 137 | 7.0 | 11.0 | 0.00 | 0.00 | 0.00 | 60 | 1012.1 |
| 20260504212834 | 81 | 201 | 6.0 | 14.0 | 0.00 | 0.00 | 0.00 | 60 | 1012.1 |
| 20260504212338 | 82 | 161 | 4.0 | 14.0 | 0.00 | 0.00 | 0.00 | 59 | 1012.1 |
| 20260504211840 | 82 | 201 | 8.0 | 12.0 | 0.00 | 0.00 | 0.00 | 58 | 1012.2 |
| 20260504211324 | 82 | 178 | 5.0 | 11.0 | 0.00 | 0.00 | 0.00 | 59 | 1012.2 |
| 20260504210849 | 82 | 167 | 5.0 | 14.0 | 0.00 | 0.00 | 0.00 | 59 | 1012.2 |
| 20260504210334 | 82 | 157 | 8.0 | 14.0 | 0.00 | 0.00 | 0.00 | 58 | 1012.3 |
| 20260504205856 | 83 | 175 | 6.0 | 12.0 | 0.00 | 0.00 | 0.00 | 58 | 1012.3 |
| 20260504205341 | 84 | 124 | 5.0 | 11.0 | 0.00 | 0.00 | 0.00 | 56 | 1012.3 |
| 20260504204826 | 83 | 239 | 2.0 | 10.0 | 0.00 | 0.00 | 0.00 | 57 | 1012.8 |
| 20260504204330 | 82 | 197 | 3.0 | 10.0 | 0.00 | 0.00 | 0.00 | 58 | 1012.7 |
| 20260504203835 | 82 | 215 | 5.0 | 11.0 | 0.00 | 0.00 | 0.00 | 58 | 1012.7 |
| 20260504203359 | 83 | 173 | 7.0 | 11.0 | 0.00 | 0.00 | 0.00 | 57 | 1012.9 |
| 20260504202825 | 83 | 165 | 3.0 | 9.0 | 0.00 | 0.00 | 0.00 | 56 | 1012.9 |
| 20260504202351 | 83 | 175 | 6.0 | 9.0 | 0.00 | 0.00 | 0.00 | 57 | 1012.9 |
| 20260504201854 | 83 | 246 | 3.0 | 8.0 | 0.00 | 0.00 | 0.00 | 57 | 1013.3 |
| 20260504201339 | 82 | 176 | 4.0 | 10.0 | 0.00 | 0.00 | 0.00 | 58 | 1013.3 |
| 20260504200845 | 82 | 184 | 5.0 | 12.0 | 0.00 | 0.00 | 0.00 | 57 | 1013.3 |
| 20260504200332 | 82 | 202 | 6.0 | 12.0 | 0.00 | 0.00 | 0.00 | 57 | 1013.4 |
| 20260504195838 | 83 | 231 | 6.0 | 10.0 | 0.00 | 0.00 | 0.00 | 58 | 1013.4 |
| 20260504195324 | 83 | 176 | 3.0 | 9.0 | 0.00 | 0.00 | 0.00 | 56 | 1013.4 |
| 20260504194852 | 84 | 178 | 3.0 | 9.0 | 0.00 | 0.00 | 0.00 | 56 | 1013.6 |
| 20260504194341 | 82 | 208 | 4.0 | 11.0 | 0.00 | 0.00 | 0.00 | 57 | 1013.6 |
| 20260504193845 | 82 | 141 | 5.0 | 11.0 | 0.00 | 0.00 | 0.00 | 60 | 1013.6 |
| 20260504193329 | 82 | 237 | 6.0 | 10.0 | 0.00 | 0.00 | 0.00 | 57 | 1013.8 |
| 20260504192855 | 82 | 211 | 4.0 | 12.0 | 0.00 | 0.00 | 0.00 | 57 | 1013.8 |
| 20260504192339 | 82 | 177 | 3.0 | 12.0 | 0.00 | 0.00 | 0.00 | 58 | 1013.8 |
| 20260504191824 | 82 | 156 | 5.0 | 13.0 | 0.00 | 0.00 | 0.00 | 58 | 1013.9 |
| 20260504191334 | 82 | 186 | 6.0 | 13.0 | 0.00 | 0.00 | 0.00 | 56 | 1013.9 |
| 20260504190820 | 82 | 179 | 4.0 | 15.0 | 0.00 | 0.00 | 0.00 | 58 | 1013.9 |
| 20260504190327 | 81 | 188 | 8.0 | 15.0 | 0.00 | 0.00 | 0.00 | 59 | 1014.3 |
| 20260504185831 | 79 | 182 | 7.0 | 13.0 | 0.00 | 0.00 | 0.00 | 61 | 1014.3 |
| 20260504185339 | 80 | 141 | 9.0 | 12.0 | 0.00 | 0.00 | 0.00 | 59 | 1014.3 |
| 20260504184826 | 81 | 131 | 6.0 | 13.0 | 0.00 | 0.00 | 0.00 | 58 | 1014.3 |
| 20260504184353 | 81 | 142 | 5.0 | 13.0 | 0.00 | 0.00 | 0.00 | 57 | 1014.3 |
| 20260504183841 | 81 | 144 | 7.0 | 13.0 | 0.00 | 0.00 | 0.00 | 58 | 1014.3 |
| 20260504183327 | 81 | 198 | 7.0 | 13.0 | 0.00 | 0.00 | 0.00 | 58 | 1014.3 |
| 20260504182832 | 81 | 145 | 6.0 | 14.0 | 0.00 | 0.00 | 0.00 | 59 | 1014.3 |
| 20260504182341 | 81 | 195 | 8.0 | 14.0 | 0.00 | 0.00 | 0.00 | 57 | 1014.3 |
| 20260504181829 | 80 | 180 | 4.0 | 14.0 | 0.00 | 0.00 | 0.00 | 60 | 1014.7 |
| 20260504181340 | 80 | 142 | 9.0 | 16.0 | 0.00 | 0.00 | 0.00 | 60 | 1014.7 |
| 20260504180827 | 81 | 175 | 6.0 | 12.0 | 0.00 | 0.00 | 0.00 | 59 | 1014.7 |
| 20260504180351 | 81 | 166 | 6.0 | 11.0 | 0.00 | 0.00 | 0.00 | 57 | 1014.9 |
| 20260504175836 | 80 | 165 | 7.0 | 15.0 | 0.00 | 0.00 | 0.00 | 60 | 1014.9 |
| 20260504175344 | 80 | 126 | 6.0 | 15.0 | 0.00 | 0.00 | 0.00 | 58 | 1014.9 |
| 20260504174831 | 80 | 162 | 6.0 | 12.0 | 0.00 | 0.00 | 0.00 | 58 | 1015.0 |
| 20260504174335 | 79 | 162 | 6.0 | 17.0 | 0.00 | 0.00 | 0.00 | 59 | 1015.0 |
| 20260504173841 | 79 | 184 | 8.0 | 17.0 | 0.00 | 0.00 | 0.00 | 60 | 1015.0 |
| 20260504173326 | 78 | 184 | 7.0 | 16.0 | 0.00 | 0.00 | 0.00 | 60 | 1015.4 |
| 20260504172853 | 79 | 157 | 10.0 | 16.0 | 0.00 | 0.00 | 0.00 | 60 | 1015.4 |
| 20260504172357 | 78 | 183 | 6.0 | 15.0 | 0.00 | 0.00 | 0.00 | 60 | 1015.4 |
| 20260504171822 | 78 | 155 | 7.0 | 15.0 | 0.00 | 0.00 | 0.00 | 62 | 1015.4 |
| 20260504171330 | 78 | 172 | 6.0 | 13.0 | 0.00 | 0.00 | 0.00 | 60 | 1015.4 |
| 20260504170820 | 78 | 172 | 7.0 | 14.0 | 0.00 | 0.00 | 0.00 | 62 | 1015.4 |
| 20260504170328 | 77 | 151 | 10.0 | 14.0 | 0.00 | 0.00 | 0.00 | 62 | 1015.6 |
| 20260504160339 | 75 | 200 | 8.0 | 16.0 | 0.00 | 0.00 | 0.00 | 65 | 1016.3 |
| 20260504150819 | 74 | 197 | 6.0 | 13.0 | 0.00 | 0.00 | 0.00 | 67 | 1016.3 |
| 20260504150327 | 73 | 185 | 5.0 | 13.0 | 0.00 | 0.00 | 0.00 | 68 | 1016.1 |
| 20260504141332 | 71 | 156 | 5.0 | 13.0 | 0.00 | 0.00 | 0.00 | 68 | 1016.3 |
| 20260504140839 | 71 | 194 | 4.0 | 12.0 | 0.00 | 0.00 | 0.00 | 68 | 1016.3 |
| 20260504140323 | 71 | 118 | 6.0 | 12.0 | 0.00 | 0.00 | 0.00 | 68 | 1016.1 |
| 20260504130332 | 67 | 141 | 5.0 | 7.0 | 0.00 | 0.00 | 0.00 | 72 | 1016.0 |
| 20260504110324 | 61 | 134 | 2.0 | 4.0 | 0.00 | 0.00 | 0.00 | 79 | 1015.8 |
| 20260504100327 | 61 | 134 | 2.0 | 3.0 | 0.00 | 0.00 | 0.00 | 77 | 1015.9 |
| 20260504081831 | 62 | 171 | 0.0 | 1.0 | 0.00 | 0.00 | 0.00 | 77 | 1016.9 |
| 20260504081336 | 62 | 171 | 0.0 | 1.0 | 0.00 | 0.00 | 0.00 | 77 | 1016.9 |
| 20260504080843 | 62 | 171 | 0.0 | 1.0 | 0.00 | 0.00 | 0.00 | 77 | 1016.9 |
| 20260504080348 | 62 | 171 | 0.0 | 1.0 | 0.00 | 0.00 | 0.00 | 76 | 1017.2 |